FW8475 Weather Reports


time (UTC)temp
C
wind
direction
speed
KPH
gust
KPH
rain 1hr
cm
rain 24hr
cm
rain mn
cm
humidity
%
barometer
mb
20260507190016 16 0.0 0.0 0.00 0.00 0.00 77 1015.1
20260507185016 16 0.0 0.0 0.00 0.30 0.00 76 1015.1
20260507184016 16 0.0 0.0 0.00 0.43 0.00 76 1014.9
20260507183016 16 0.0 1.6 0.00 0.46 0.00 76 1014.8
20260507182016 17 90 1.6 6.4 0.00 0.51 0.00 76 1014.7
20260507181016 17 0.0 1.6 0.00 0.53 0.00 76 1014.4
20260507180016 17 68 1.6 3.2 0.00 0.53 0.00 76 1014.5
20260507174016 17 45 3.2 6.4 0.00 0.53 0.00 74 1014.3
20260507173016 17 90 1.6 4.8 0.00 0.53 0.00 75 1014.3
20260507172016 17 68 4.8 9.7 0.00 0.53 0.00 74 1014.3
20260507171056 18 68 1.6 4.8 0.00 0.53 0.00 75 1014.3
20260507170016 18 0.0 1.6 0.00 0.53 0.00 74 1014.3
20260507165016 18 68 6.4 11.3 0.00 0.53 0.00 71 1014.2
20260507164016 19 68 3.2 4.8 0.00 0.53 0.00 69 1014.1
20260507163056 20 68 4.8 9.7 0.00 0.53 0.00 68 1014.0
20260507162016 20 0 4.8 8.0 0.00 0.53 0.00 70 1014.0
20260507161056 21 0.0 1.6 0.00 0.53 0.00 68 1013.9
20260507160016 21 90 1.6 3.2 0.00 0.53 0.00 67 1013.8
20260507155016 21 90 1.6 3.2 0.00 0.53 0.00 67 1013.7
20260507154034 20 90 1.6 3.2 0.00 0.53 0.00 66 1013.6
20260507153016 20 68 4.8 8.0 0.00 0.56 0.00 66 1013.5
20260507152016 20 68 4.8 12.9 0.00 0.61 0.00 68 1013.4
20260507151016 21 45 4.8 9.7 0.00 0.79 0.00 65 1013.5
20260507150016 20 0.0 0.0 0.00 1.09 0.00 65 1013.4
20260507145016 20 203 1.6 4.8 0.00 1.30 0.00 63 1012.8
20260507144016 20 0.0 1.6 0.00 1.55 0.00 59 1012.3
20260507143016 20 315 1.6 4.8 0.00 1.80 0.00 61 1012.4
20260507142016 21 293 4.8 12.9 0.00 1.83 0.00 59 1012.2
20260507141016 21 225 6.4 14.5 0.00 1.83 0.00 62 1012.4
20260507140016 21 293 1.6 4.8 0.00 1.83 0.00 64 1012.4
20260507135016 21 0.0 1.6 0.00 1.83 0.00 65 1012.4
20260507134056 22 225 1.6 4.8 0.00 1.83 0.00 64 1012.4
20260507133056 22 248 1.6 4.8 0.00 1.83 0.00 61 1012.4
20260507132016 22 158 3.2 6.4 0.00 1.83 0.00 59 1012.5
20260507131016 22 270 3.2 4.8 0.00 1.85 0.00 58 1012.6
20260507130016 22 135 1.6 1.6 0.00 1.85 0.00 60 1012.7
20260507125016 22 293 1.6 4.8 0.00 1.85 0.00 59 1012.6
20260507124016 22 0.0 0.0 0.00 1.85 0.00 59 1012.6
20260507123056 22 0.0 1.6 0.00 1.85 0.00 59 1012.6
20260507122056 22 68 3.2 8.0 0.00 1.85 0.00 58 1012.6
20260507121016 22 45 3.2 9.7 0.00 1.85 0.00 58 1012.8
20260507120016 23 270 3.2 6.4 0.00 1.85 0.00 56 1012.8
20260507115016 23 315 3.2 6.4 0.00 1.85 0.00 52 1012.9
20260507114016 23 270 1.6 6.4 0.00 1.88 0.00 57 1013.0
20260507113016 23 0.0 1.6 0.00 1.91 0.00 58 1012.9
20260507112015 23 0.0 6.4 0.00 1.91 0.00 55 1013.0
20260507111016 22 203 1.6 6.4 0.00 1.91 0.00 58 1013.0
20260507110016 22 248 1.6 3.2 0.00 1.93 0.00 58 1013.1
20260507105016 23 0.0 0.0 0.00 2.03 0.00 58 1013.2
20260507104016 23 0.0 1.6 0.00 2.03 0.00 58 1013.3
20260507103015 22 0.0 1.6 0.00 2.06 0.00 61 1013.3
20260507102056 22 225 1.6 3.2 0.00 2.08 0.00 59 1013.5
20260507101016 22 0.0 3.2 0.00 2.08 0.00 64 1013.4
20260507100016 22 90 1.6 3.2 0.00 2.08 0.00 66 1013.5
20260507095015 22 68 3.2 3.2 0.00 2.08 0.00 64 1013.6
20260507094016 22 0.0 4.8 0.00 2.08 0.00 64 1013.5
20260507093055 21 90 1.6 3.2 0.00 2.08 0.00 69 1013.4
20260507092016 21 0.0 3.2 0.00 2.08 0.00 73 1013.4
20260507091016 20 0.0 1.6 0.00 2.08 0.00 72 1013.4
20260507090056 20 225 1.6 3.2 0.00 2.08 0.00 73 1013.5
20260507085015 20 68 1.6 3.2 0.00 2.08 0.00 74 1013.4
20260507084015 20 68 3.2 6.4 0.00 2.08 0.00 75 1013.4
20260507083015 19 0.0 0.0 0.00 2.08 0.00 76 1013.4
20260507082015 18 45 1.6 4.8 0.00 2.08 0.00 76 1013.4
20260507081015 18 0.0 1.6 0.00 2.08 0.00 80 1013.3
20260507080016 18 0.0 3.2 0.00 2.08 0.00 79 1013.4
20260507075015 18 0.0 1.6 0.00 2.11 0.00 81 1013.2
20260507074056 18 0 1.6 3.2 0.00 2.18 0.00 80 1013.3
20260507073016 18 68 1.6 3.2 0.00 2.24 0.00 81 1013.2
20260507072015 18 68 3.2 8.0 0.00 2.24 0.00 82 1013.2
20260507071015 18 0.0 1.6 0.00 2.26 0.00 84 1013.2
20260507070015 17 68 3.2 9.7 0.00 2.29 0.00 84 1013.1
20260507065016 17 0.0 3.2 0.00 2.29 0.00 87 1013.1
20260507064016 17 68 1.6 6.4 0.00 2.29 0.00 87 1013.0
20260507063016 16 68 4.8 9.7 0.00 2.29 0.00 88 1013.0
20260507062016 16 68 6.4 9.7 0.00 2.29 0.00 89 1013.0
20260507061016 16 0.0 1.6 0.00 2.29 0.00 89 1012.9
20260507060016 16 68 3.2 4.8 0.00 2.29 0.00 90 1012.8
20260507055056 16 68 1.6 4.8 0.00 2.29 0.00 91 1012.6
20260507054015 16 45 1.6 4.8 0.00 2.29 0.00 95 1012.4
20260507053056 15 23 3.2 4.8 0.00 2.29 0.00 97 1012.3
20260507052015 14 0.0 3.2 0.00 2.29 0.00 98 1012.2
20260507051015 13 23 1.6 3.2 0.00 2.29 0.00 99 1012.3
20260507050015 13 0.0 0.0 0.00 2.29 0.00 98 1012.2
20260507045015 13 0.0 0.0 0.00 2.29 0.00 99 1012.1
20260507044015 13 0.0 0.0 0.00 2.29 0.00 98 1012.0
20260507043015 12 0.0 0.0 0.00 2.29 0.00 98 1011.9
20260507042055 12 0.0 0.0 0.00 2.29 0.00 98 1011.8
20260507041015 13 0.0 0.0 0.00 2.29 0.00 98 1011.5
20260507040015 13 0.0 0.0 0.00 2.29 0.00 98 1011.7
20260507035015 13 0.0 1.6 0.00 2.29 0.00 98 1011.6
20260507034034 13 0.0 0.0 0.00 2.29 0.00 98 1011.7
20260507033015 13 0.0 0.0 0.00 2.29 0.00 98 1011.6
20260507032015 13 0.0 0.0 0.00 2.29 0.00 98 1011.7
20260507031055 13 0.0 0.0 0.00 2.29 0.00 98 1011.7
20260507030015 14 0.0 0.0 0.00 2.29 0.00 98 1011.7
20260507025015 14 0.0 0.0 0.00 2.29 0.00 98 1011.6
20260507024015 14 0.0 0.0 0.00 2.29 0.00 98 1011.6
20260507023015 14 0.0 1.6 0.00 2.29 0.00 98 1011.6
20260507022015 14 0.0 1.6 0.00 2.29 0.00 98 1011.5
20260507021015 14 0.0 1.6 0.00 2.29 0.00 98 1011.5
20260507020015 14 0.0 1.6 0.00 2.29 0.00 98 1011.4
20260507015015 14 0.0 1.6 0.00 2.29 0.00 98 1011.5
20260507014015 14 0.0 1.6 0.00 2.29 0.00 98 1011.5
20260507013055 14 0.0 1.6 0.00 2.29 0.00 98 1011.5
20260507012015 14 0.0 1.6 0.00 2.29 0.00 98 1011.5
20260507011015 15 0.0 1.6 0.00 2.29 0.00 98 1011.5
20260507010015 15 0.0 1.6 0.00 2.29 0.00 98 1011.5
20260507005015 15 0.0 1.6 0.00 2.29 0.00 98 1011.5
20260507004017 15 0.0 0.0 0.00 2.29 0.00 98 1011.6
20260507003017 15 0.0 0.0 0.00 2.29 0.00 99 1011.6
20260507002017 15 0.0 0.0 0.00 2.29 0.00 98 1011.7
20260507001017 15 0.0 0.0 0.00 2.29 0.00 98 1011.6
20260507000017 15 0.0 0.0 0.00 2.29 0.00 98 1011.6
20260506235017 15 0.0 0.0 0.00 2.29 0.00 98 1011.6
20260506234017 15 0.0 1.6 0.00 2.29 0.00 98 1011.7
20260506233017 14 0.0 0.0 0.00 2.29 0.00 98 1011.7
20260506232057 14 0.0 0.0 0.00 2.29 0.00 98 1011.6
20260506231017 14 0.0 1.6 0.00 2.29 0.00 98 1011.7
20260506230017 14 0.0 1.6 0.00 2.29 0.00 98 1011.9
20260506225017 14 0.0 1.6 0.00 2.29 0.00 98 1011.9
20260506224017 14 0.0 1.6 0.00 2.29 0.00 98 1011.8
20260506223017 14 0.0 0.0 0.00 2.29 0.00 98 1011.7
20260506222017 14 0.0 0.0 0.00 2.29 0.00 98 1011.7
20260506221057 15 0.0 0.0 0.00 2.29 0.00 98 1011.7
20260506220017 15 0.0 1.6 0.00 2.29 2.29 98 1011.6
20260506215016 15 0.0 0.0 0.00 2.29 2.29 98 1011.6
20260506214016 15 0.0 0.0 0.00 2.29 2.29 98 1011.6
20260506213016 15 0.0 0.0 0.00 2.29 2.29 98 1011.7
20260506212016 15 0.0 0.0 0.00 2.29 2.29 98 1011.8
20260506211016 15 0.0 0.0 0.00 2.29 2.29 98 1011.8
20260506210016 15 0.0 1.6 0.00 2.29 2.29 98 1011.7
20260506205016 15 0.0 1.6 0.00 2.29 2.29 98 1011.6
20260506204016 15 0.0 0.0 0.00 2.29 2.29 98 1011.5
20260506203016 15 0.0 0.0 0.00 2.29 2.29 98 1011.6
20260506202016 15 0.0 0.0 0.00 2.29 2.29 98 1011.5
20260506201016 15 0.0 0.0 0.00 2.29 2.29 98 1011.4
20260506200016 15 0.0 0.0 0.00 2.29 2.29 98 1011.4
20260506195016 15 0.0 0.0 0.30 2.29 2.29 98 1011.2
20260506194016 15 0.0 0.0 0.43 2.31 2.29 98 1011.2
20260506193056 15 0.0 0.0 0.46 2.31 2.29 98 1011.0
20260506192019 15 0.0 0.0 0.51 2.34 2.29 97 1011.1
20260506191016 15 0.0 0.0 0.53 2.34 2.29 97 1011.1